Simultaneous Nadir Overpasses (SNOs) Predictions

Prediction of SNOs between FY3D and NOAA-19 Satellite Orbit:

Table of predicted SNOs for the next 14.0 days since TLE Epoch: 4/30/2022
Index Date (FY3D) Time (FY3D) Lat,Lon (FY3D) SZA (FY3D ) Date (NOAA-19) Time (NOAA-19) Lat,Lon (NOAA-19) SZA (NOAA-19 ) Distance(km) Time Diff (sec)
1 05/02/2022 18:55:57 -77.62, 58.35 117.42 05/02/2022 18:54:41 -77.61, 58.47 117.41 2.84 76
2 05/02/2022 19:46:42 77.59,-134.22 62.54 05/02/2022 19:45:37 77.61,-134.27 62.58 2.55 65
3 05/02/2022 20:37:28 -77.60, 33.05 117.46 05/02/2022 20:36:41 -77.61, 32.96 117.43 2.33 47
4 05/02/2022 21:28:14 77.62,-159.72 62.55 05/02/2022 21:27:37 77.61,-159.77 62.56 1.26 37
5 05/02/2022 22:19:00 -77.62, 7.55 117.45 05/02/2022 22:18:41 -77.61, 7.46 117.46 2.73 19
6 05/02/2022 23:09:46 77.64, 174.78 62.56 05/02/2022 23:09:37 77.61, 174.73 62.54 3.60 9
7 05/03/2022 00:00:32 -77.65, -17.95 117.44 05/03/2022 00:00:40 -77.65, -17.84 117.45 2.73 8
8 05/03/2022 00:51:17 77.62, 149.48 62.52 05/03/2022 00:51:36 77.65, 149.44 62.54 2.87 19
9 05/03/2022 01:42:03 -77.63, -43.25 117.48 05/03/2022 01:42:40 -77.65, -43.34 117.48 2.55 37
10 05/03/2022 02:32:49 77.65, 123.98 62.53 05/03/2022 02:33:36 77.65, 123.94 62.52 0.93 47
11 05/03/2022 03:23:35 -77.66, -68.75 117.47 05/03/2022 03:24:40 -77.65, -68.84 117.50 2.57 65
12 05/03/2022 04:14:21 77.67, 98.48 62.54 05/03/2022 04:15:36 77.65, 98.44 62.50 3.11 75



Historial Predications of SNOs between FY3D and NOAA-19
